METAR Formatted Surface Weather Observation
Issued by NWS

Home | Current Version | Previous Version | Text Only | Print | Product List | Glossary On
Versions: 1 2 3 4 5 6 7 8 9 10 11 12 13 14 15 16 17 18 19 20 21 22 23 24 25 26 27 28 29 30 31 32 33 34 35 36 37 38 39 40 41 42 43 44 45 46 47 48 49 50
000
SAUS44 KMOB 250758
MTRNDZ
METAR KNDZ 250756Z AUTO 35003KT 10SM CLR 13/11 A2980 RMK AO2 SLP077
T0128010
NO CARRIER

RING

CONNECT 57600

LBBMTR6R6 ALL
TTAA00 K6R6 250757 COR
METAR K6R6 250753Z AUTO 03007KT 18/11 A2961 RMK AO1 SLP994 T01830106



USA.gov is the U.S. government's official web portal to all federal, state and local government web resources and services.